Regional Weather Roundup
Issued by NWS

Home | Current Version | Previous Version | Graphics & Text | Print | Product List | Glossary On
Versions: 1 2 3 4 5 6 7 8 9 10 11 12 13 14 15 16 17 18 19 20 21 22 23 24 25 26 27 28 29 30 31 32 33 34 35 36 37 38 39 40 41 42 43 44 45 46 47 48 49 50
000
ASUS43 KIND 230009
RWRIN

WEATHER ROUNDUP FOR INDIANA
NATIONAL WEATHER SERVICE INDIANAPOLIS IN
800 PM EDT SUN OCT 22 2017

NOTE: "FAIR" INDICATES FEW OR NO CLOUDS BELOW 12,000 FEET WITH NO
SIGNIFICANT WEATHER AND/OR OBSTRUCTIONS TO VISIBILITY.

* - STATION DOES NOT REPORT WEATHER SUCH AS PRECIPITATION OR FOG.

+ - STATION NOT QUALITY CONTROLLED BY THE NATIONAL WEATHER SERVICE.
    USE DATA WITH CAUTION...ESPECIALLY DEWPOINT AND RELATIVE
    HUMIDITY OBSERVATIONS.

INZ001>003-010>013-019-020-230100-
NORTHWEST INDIANA

CITY           SKY/WX    TMP DP  RH WIND       PRES   REMARKS
GARY /AIRPORT/ LGT RAIN  54  52  94 N14       30.05R
KNOX *+        CLOUDY    59  55  88 NW15      30.00R
LA PORTE +     DRIZZLE   56  55  97 NW10      30.02R
6HR MIN TEMP:  56; 6HR MAX TEMP:  73;

MICHIGAN CITY+ HVY RAIN  54  54 100 N6        30.04R
MONTICELLO +   CLOUDY    67  63  86 W3        29.99R
6HR MIN TEMP:  67; 6HR MAX TEMP:  76;

RENSSELAER +   CLOUDY    59  54  82 NW9       30.01R
VALPARAISO     CLOUDY    55  54  96 NW8       30.03R
6HR MIN TEMP:  55; 6HR MAX TEMP:  75; 6HR PCP:  0.02;


$$

LMZ046-743>745-230100-
SOUTHERN LAKE MICHIGAN

STATION/POSITION TIME  TEMP    WIND        PRES    WAVE
                       AIR SEA DIR/SP/G            HT
                 (UTC) (F)     (DEG/KT/KT) (MB)    (FT)
BURNS HARBOR     2340   54     360/ 15/ 19 1017.6R
MICHIGAN CITY    2340   54     330/ 20/ 21   N/A
5NW MICH CITY    0000   54 58  350/ 16/ 21   N/A     5

$$

INZ004-005-014>016-021>024-230100-
NORTH CENTRAL INDIANA

CITY           SKY/WX    TMP DP  RH WIND       PRES   REMARKS
GOSHEN         CLOUDY    73  55  53 S15       29.99R
6HR MIN TEMP:  73; 6HR MAX TEMP:  77;

LOGANSPORT +   CLOUDY    72  57  60 S12       30.00R
PERU/GRISSOM   CLOUDY    71  58  62 S13       29.99F
6HR MIN TEMP:  71; 6HR MAX TEMP:  78;

SOUTH BEND     LGT RAIN  64  64 100 W3        30.00R FOG
6HR MIN TEMP:  64; 6HR MAX TEMP:  73; 6HR PCP:  0.04;

WARSAW +       CLOUDY    72  57  60 S7        30.00R

$$

INZ006>009-017-018-025>027-230100-
NORTHEAST INDIANA

CITY           SKY/WX    TMP DP  RH WIND       PRES   REMARKS
AUBURN +       CLOUDY    72  54  53 S3        30.03S
FORT WAYNE     PTCLDY    71  55  56 S13       30.03S
6HR MIN TEMP:  71; 6HR MAX TEMP:  79;

HUNTINGTON +   CLOUDY    71  55  56 S10       30.02S
6HR MIN TEMP:  71; 6HR MAX TEMP:  78;

KENDALLVILLE + MOCLDY    71  56  59 S13       30.02S

$$

INZ028-029-035-036-043>045-051>053-230100-
WEST CENTRAL INDIANA

CITY           SKY/WX    TMP DP  RH WIND       PRES   REMARKS
GREENCASTLE +  CLOUDY    70  55  60 SE8       30.01R
LAFAYETTE      CLOUDY    69  61  75 NW9       29.98R
6HR MIN TEMP:  69; 6HR MAX TEMP:  76; 6HR PCP:  0.01;

TERRE HAUTE    CLOUDY    72  57  59 SE9       29.97S
6HR MIN TEMP:  72; 6HR MAX TEMP:  78;


$$

INZ030>032-037>040-046>048-054>057-064-065-230100-
CENTRAL INDIANA

CITY           SKY/WX    TMP DP  RH WIND       PRES   REMARKS
CP ATTERBURY + CLOUDY    68  55  64 SE5       30.03F
COLUMBUS       MOCLDY    68  50  52 SE7       30.04S
FRANKFORT +    CLOUDY    73  59  61 S9        30.01S
6HR MIN TEMP:  73; 6HR MAX TEMP:  82;

GREENWOOD *+   CLOUDY    73  58  60 SE8       30.03S
6HR MIN TEMP:  73; 6HR MAX TEMP:  82;

INDIANAPOLIS   CLOUDY    71  57  61 SE10      30.02R
6HR MIN TEMP:  71; 6HR MAX TEMP:  79;

-EAGLE CREEK   CLOUDY    72  56  57 SE7       30.02R
6HR MIN TEMP:  72; 6HR MAX TEMP:  78;

KOKOMO +       CLOUDY    71  58  63 S14       30.02R
6HR MIN TEMP:  71; 6HR MAX TEMP:  78;

MT COMFORT *+  CLOUDY    68  59  73 S7        30.04S
SHELBYVILLE    PTCLDY    70  54  56 SE10      30.03S
6HR MIN TEMP:  70; 6HR MAX TEMP:  79;

ZIONSVILLE +   CLOUDY    70  57  63 SE13G18   30.03R
6HR MIN TEMP:  70; 6HR MAX TEMP:  77;


$$

INZ033-034-041-042-049-050-058-059-230100-
EAST CENTRAL INDIANA

CITY           SKY/WX    TMP DP  RH WIND       PRES   REMARKS
MUNCIE         CLOUDY    72  54  53 S10       30.04S
6HR MIN TEMP:  72; 6HR MAX TEMP:  80;

RICHMOND +     CLOUDY    63  52  67 SE8       30.10R

$$

INZ060-061-067>069-081>083-085>088-230100-
SOUTHWEST INDIANA

CITY           SKY/WX    TMP DP  RH WIND       PRES   REMARKS
EVANSVILLE     CLOUDY    74  59  59 SE6       29.96F
6HR MIN TEMP:  74; 6HR MAX TEMP:  77;

HUNTINGBURG +  CLOUDY    72  61  68 SE8       29.98F
6HR MIN TEMP:  72; 6HR MAX TEMP:  77;

WASHINGTON +   CLOUDY    71  56  60 SE6       29.97F
6HR MIN TEMP:  71; 6HR MAX TEMP:  79;


$$

INZ062-063-066-070>080-084-089>092-230100-
SOUTH CENTRAL AND SOUTHEAST INDIANA

CITY           SKY/WX    TMP DP  RH WIND       PRES   REMARKS
BLOOMINGTON    CLOUDY    72  56  57 SE8       30.01S
6HR MIN TEMP:  72; 6HR MAX TEMP:  79;

MADISON *+     CLOUDY    68  52  56 E7        30.08S
NORTH VERNON + MOCLDY    68  54  60 SE6       30.06S
SEYMOUR +      CLOUDY    72  54  53 SE7       30.03S

$$





USA.gov is the U.S. government's official web portal to all federal, state and local government web resources and services.